[Date Prev][Date Next][Thread Prev][Thread Next][Date Index][Thread Index]

[jamsat-news:1709] jas2info #274



========================   ºÇ¿·¾ðÊó   ==============================

        Last updated ¡¡11May2002 ¡¡18:30(JST)   #274

====================================================================
   
£±¡Ë¥¢¥Þ¥Á¥å¥¢ÄÌ¿®±ÒÀ±¾ðÊ󡢣ƣϥ·¥ê¡¼¥º¤Îµ°Æ»Í×ÁÇ¡¢¥Æ¥ì¥á¥È¥ê¡¢£Ñ£Ó£Ï¤Î
¡¡¡¡¡¡¾õ¶·Åù¤ò¤Þ¤È¤á¤Æ¤ß¤Þ¤·¤¿¡¥
¡¡¡¡¡¡
¡¡£Æ£Ï¡Ý£²£¹¤Î£²£°£°£²Ç¯£µ·î£±£±Æü¡ÊÅڡˤΣ±£¶¡§£³£´¡Ê£Ê£Ó£Ô¡Ë¤Î¥Ñ¥¹¤Ç¤Ï
£Ê£Á£Ò£Ì¤Î¥Û¡¼¥à¥Ú¡¼¥¸¤Î¤È¤¦¤ê¥¢¥Ê¥í¥°±¿ÍѤǤ·¤¿¡£¡¡º£Æü¤Þ¤Ç¤Î´Ñ¬¤·¤¿
¥Æ¥ì¥á¥È¥ê¡¼¤ÈºÇ½ª¤ÎʬÀÏ·ë²Ì¤òÊó¹ð¤·¤Æ¤ª¤­¤Þ¤¹¡£

AS28301C  11May2002
16:34-16:42(JST)
AOS   MEL  LOS  Elev
 43    85  128  83.7
Freq. 435.798-.790MHz

HI HI AE 07 88 55 00 D4 6F 6D 09 42 45 6A 59 5D 87 85 91 82 8F 8D 8B 8C 84 
HI HI AE 07 88 55 00 D4 6F 6D 09 42 4F 71 5F 56 88 85 92 70 8F 8D 8B 8C 84 
HI HI AE 07 88 55 00 D4 6F 6D 09 42 54 79 67 53 88 85 92 57 8F 8D 8B 8C 84 
HI HI AE 07 88 55 00 D4 6F 6D 09 42 57 82 6E 52 89 86 93 7B 8F 8D 8B 8C 85 
HI HI AE 07 88 55 00 D4 6F 6D 09 42 58 8C 74 4D 8A 87 94 90 8F 8D 8C 8C 85 
HI HI AE 07 88 55 00 D4 6F 6D 09 42 58 94 78 4B 8B 88 94 7E 8F 8D 8C 8C 85 
HI HI AE 07 88 55 00 D4 6F 6D 09 42 56 99 78 4C 8C 89 96 84 8F 8D 8C 8C 85 
HI HI AE 07 88 55 00 D4 6F 6D 09 42 52 9C 78 4C 8E 8B 98 50 8F 8D 8C 8C 85 
HI HI AE 07 88 55 00 D4 6F 6D 09 42 4E 9A 74 4D 90 8D 9A 9A 8F 8D 8C 8C 85 
HI HI AE 07 88 55 00 D4 6F 6D 09 42 4A 95 72 4E 91 8D 9A 74 8F 8E 8C 8C 85 

AS28288C  10May2002
17:25-17:40(JST)
AOS   MEL  LOS  Elev
 24    94  164  29.1
Freq. 435.803-.786MHz
                           16 09 29 4F A0 74 5E 8F 8D B0 61 84 8D 91 88 83 
HI HI AE 07 88 55 00 D4 64 16 09 29 51 9D 71 5E 8F 8C B0 74 84 8D 91 88 83 
HI HI AE 07 88 55 00 D4 64 16 09 29 54 9A 70 5E 90 8D B0 69 84 8D 91 87 63 
HI HI AE 07 88 55 00 D4 64 16 09 29 56 98 71 4F 92 8F 9C 6B 84 8D 91 88 83 
HI HI AE 07 88 55 00 D4 64 16 09 29 59 94 6F 4F 91 8E 9B 74 84 8D 91 88 83 
HI HI AE 07 88 55 00 D4 64 16 09 29 5B 91 6E 4F 92 8E 9C 6E 84 8D 91 87 83 
HI HI AE 07 88 55 00 D4 64 16 09 29 5E 8E 6D 51 91 8E  B 7C 84 8D 91 88 83 
HI HI AE 07 88 55 00 D4 64 16 09 29 60 8B 6D 51 91 8E 9C 71 84 8D 91 88 83 
HI HI AE 07 88 55 00 D4 64 16 09 29 62 88 6C 51 91 8E 9B 8C 84 8D 92 88 83 
HI HI AE 07 88 55 00 D4 64 16 09 29 65 86 6B 51 91 8E 9B 72 84 8D 91 88 84 
HI HI AE 07 88 55 00 D4 64 16 09 29 67 84 6B 51 91 8E 9B 5F 84 8D 91 88 82 
HI HI AE 07 88 55 00 D4 64 16 09 29 68 83 6A 54 91 8E 9B 73 84 8D 91 88 83 
HI HI AE 07 88 55 00 D4 64 16 09 29 6A 82 6A 52 90 8D 9B 61 84 8D 91 88 83 
HI HI AE 07 88 55 00 D4 64 16 09 29 6B 81 6A 52 90 8D 9A 7B 84 8D 92 88 82 
HI HI AE 07 88 55 00 D4 64 16 09 29 6C 81 6A 52 91 8S 9B 75 84 8D 92 88 82 
HI HI AE 07 88 55 00 D5 64 16 09 29 6C 82 6A 52 91 7D 9B 80 84 8D 92 88 83 
HI HI AE 07 88 55 00 D4 64 16 09 29 6C 83 6B 53 91 8E 9B 78 84 8D 92 88 83 
HI HI AE 07 88 55 00 D4 64 16 09 29 6C 84 6B 51 91 7E 9B 6F 84 8D 92 88 82 
HI HI AE 07 88 55 00 D4 64 16 09 29 6B 86 6C 51 91 8E 9B 77 84 8D 92 88 82 
HI HI AE 07 88 55 00 D4 64 16 09 29 6A 87 6C 50 91 7E 9B 6E 84 8E 92 88 82 
HI HI AE 07 88 55 00 D4 64 16 09 29 69 8A 6D 54 91 8E 9B 7F 84 8E 92 88 82 

AS28275C  9May2002
18:19-18:36(JST)
AOS   MEL  LOS  Elev
 13    96  192  83.7
Freq. 435.804-.785MHz
                                             59 8C 8A 96 6A 8D 8F 8E 89 84 
HI HI AE 07 88 55 00 D4 C2 EE 09 45 76 57 5D 58 8C 89 96 71 8D 8F 8E 89 85 
HI HI AE 07 88 55 00 D4 C2 EE 09 45 72 47 61 57 8C 89 96 8D 8D 8F 8E 89 84 
HI HI AE 07 88 55 00 D4 C2 EE 09 45 70 40 64 55 8C 8A 97 7D 8D 8F 8D 89 84 
HI HI AE 07 88 55 00 D4 C2 EE 09 45 6F 3A 64 56 8D 8A 97 75 8D 8F 8D 89 84 
HI HI AE 07 88 55 00 D4 C2 EE 09 45 6D 35 64 54 8E 8B 98 79 8D 8F 8D 89 84 
HI HI AE 07 88 55 00 D4 C2 EE 09 45 6C 31 65 54 8F 8C 98 6A 8D 8F 8D 89 84 
HI HI AE 07 88 55 00 D4 C2 EE 09 45 6B 2E 67 54 8F 8C 99 66 8D 8F 8D 8A 84 
HI HI AE 07 88 55 00 D4 C2 EE 09 45 6A 2C 65 54 90 8D 9A 71 8E 8F 8D 89 84 
HI HI AE 07 88 55 00 D4 TE EE 09 45 6A 29 63 51 90 8D 9A 81 8E 8F 8C 89 84 
HI HI AE 07 88 55 00 D4 C2 EE 09 45 6B 2B 6B 51 90 8D 9A 65 8E 8F 8C 8A 84 
HI HI AE 07 88 55 00 D4 C2 EE 09 45 6C 2C 6B 51 91 8D 9B 62 8E 8F 8C 8A 84 
HI HI AE 07 88 55 00 D4 C2 EE 09 29 6D AD 6B 51 91 8D 9B 8C 8E 8F 8C 8A 84 
HI HI AE 07 88 55 00 D4 C2 EE 09 39             91 8D 9B 7E 8E 8F 8C 8A 84 
HI HI AE 07 88 55 00 D4 C2 EE 09 45 71 31 6D 51 91 8E 9B 86 8E 8F 8C 8A 84 
HI HI AE 07 88 55 0  D4 C2 EE 09 45 83 44 6B 52 90 8D 9B 7D 8F 8E 8B 8A 84 
HI HI AE 07 88 55 00 D4 C2 EE 09 45 87 44 7A 55 90 8D 9A 5C 8F 8E 8B 8A 84
HI HI AE 07 88 55 00 D4 C2 EE 09 45 8B 4D 67 52 8F 8C 99 5A 8F 8E 8B 8B 84 
HI HI AE 07 88 55 00 D4 C2 EE 09 45 8F 5E 6E 53 8F 8C 99 54 8F 8E 8B 8B 84 

AS28261C  8May2002
17:31-17:45(JST)
AOS   MEL  LOS  Elev
 23    94  166  31.7
Freq. 435.803-.786MHz
                                                      7F 57 86 8C 95 8E 84 
HI HI AE C7 88 55 00 D4 78 60 09 05 50 9E 75 4C 91 8E 9C 65 86 8C 94 8E 84 
HI HI AE C7 88 55 00 D4 78 60 09 05 4F 91 76 4C 91 8E 9B 7C 86 8C 94 8E 84 
HI HI AE 07 88 55 00 D4 78 60 09 05 50 8B 76 4D 91 8E 9B 86 86 8C 94 8E 84 
HI HI AE 07 88 55 00 D4 78 60 09 05 4F 84 76 4C 90 8D 9B 62 86 8C 94 8E 84 
HI HI AE 07 88 55 00 D4 78 60 09 05 50 7C 73 5E 90 8D 9A 81 86 8C 94 8E 84 
HI HI AE 07 88 55 00 D4 78 60 09 05 52 78 73 50 92 8E B0 72 86 8C 94 8E 84 
HI HI AE 07 88 55 00 D4 78 60 09 05 53 72 72 4F 91 8E 9C 7C 86 8C 94 8E 84 
HI HI AE 07 88 55 00 D4 78 60 09 05 54 6D 71 4F 92 8F 9C 63 86 8C 94 8E 84 
HI HI AE 07 88 55 00 D4 78 60 09 05 56 68 6F 51 91 8E 9B 67 86 8C 94 8E 84 
HI HI AE 07 88 55 00 D4 78 60 09 05 57 63 6A 52 90 8D 9A 5C 86 8C 94 8D 84 
HI HI AE 07 88 55 00 D4 78 60 09 05 5A 60 68 52 8F 8D 9A 79 86 8C 94 8D 84 
HI HI AE 07 88 55 00 D4 78 60 09 05 5B 5D 65 55 8F 8C 99 72 86 8C 94 8D 84 
HI HI AE 07 88 55 00 D4 78 60 09 05 5E 5A 62 56 8E 8B 98 6B 86 8C 94 8D 84 
HI HI AE 07 88 55 00 D4 78 60 09 05 60 58 5F 57 8D 8B 97 73 86 8D 94 8D 84 
HI HI AE 07 88 55 00 D4 78 60 09 05 62 56 60 57 8D 8A 97 7D 86 8D 94 8D 84 
HI HI AE 07 88 55 00 D4 78 60 09 05 65 54 5D 59 8C 89 96 6B 86 8D 94 8D 84 
HI HI AE 07 88 55 00 D4 78 60 09 05 67 53 5B 5A 8B 89 96 70 86 8D 94 8D 84 
HI HI AE 07 88 55 00 D4 78 60 09 05 6A 53 5A 59 8A 88 95 74 86 8D 94 8D 84 
HI HI AE 07 88 55 00 D4 78 60 09 05 6C 52 5B 59 8A 88 94 7E 86 8D 94 8D 84 
HI HI AE 07 88 55 00 D4 78 60 09 05 6E 51 5D 5A 8A 88 94 7B 86 8D 94 8D 84 
 
------------------------¡¡£Æ£Ï-£²£¹¤Îµ°Æ»Í×ÁÇ¡¡------------------------------        
 
¡¡¡¡¢£ µ°Æ»Í×ÁÇ£±¡§¡Öjamsat¡Ýkeps¡§£±£²£°£³¡×¤è¤ê         
¡¡¡¡¡¡¡¡¡¡¡¡¡¡¡¡¡¡¡¡SB KEPS @ AMSAT  $ORB02128.N
¡¡¡¡¡¡¡¡¡¡¡¡¡¡¡¡¡¡¡¡2Line Orbital Elements 02128.AMSAT

HR AMSAT ORBITAL ELEMENTS FOR AMATEUR SATELLITES IN NASA FORMAT
FROM WA5QGD FORT WORTH,TX May 8, 2002
SEND SUBSCRIBE/UNSUBSCRIBE TO majordomo@amsat.org ONLY
BID: ORB02128.N

¡¡DECODE 2-LINE ELSETS WITH THE FOLLOWING KEY:
¡¡1 AAAAAU 00  0  0 BBBBB.BBBBBBBB  .CCCCCCCC  00000-0  00000-0 0  DDDZ
¡¡2 AAAAA EEE.EEEE FFF.FFFF GGGGGGG HHH.HHHH III.IIII JJ.JJJJJJJJKKKKKZ
¡¡KEY: A-CATALOGNUM B-EPOCHTIME C-DECAY D-ELSETNUM E-INCLINATION F-RAAN
¡¡G-ECCENTRICITY H-ARGPERIGEE I-MNANOM J-MNMOTION K-ORBITNUM Z-CHECKSUM

FO-29
1 24278U 96046B   02128.54915702  .00000010  00000-0  48362-4 0  4964
2 24278  98.5136 314.0394 0350040 238.2027 118.4575 13.52836953282634

 ¢£ µ°Æ»Í×ÁÇ£²¡§¡Öjamsat¡Ýkeps¡§£±£²£°£²¡×¤è¤ê
¡¡¡¡¡¡¡¡¡¡¡¡¡¡¡¡SB KEPS @ AMSAT  $ORB02128.O
¡¡¡¡¡¡¡¡¡¡¡¡¡¡¡¡Orbital Elements  02128.OSCAR

HR AMSAT ORBITAL ELEMENTS FOR OSCAR SATELLITES
FROM WA5QGD FORT WORTH,TX May 8, 2002
SEND SUBSCRIBE/UNSUBSCRIBE TO majordomo@amsat.org ONLY
BID: ORB02128.O
TO ALL RADIO AMATEURS BT

Satellite: FO-29
Catalog number: 24278
Epoch time:      02128.54915702
Element set:     496
Inclination:       98.5136 deg
RA of node:       314.0394 deg
Eccentricity:    0.0350040
Arg of perigee:   238.2027 deg
Mean anomaly:     118.4575 deg
Mean motion:   13.52836953 rev/day
Decay rate:        1.0e-07 rev/day^2
Epoch rev:           28263
Checksum:              300

-------------------¡¡¡¡FO-29¡ÊJAS-2)¤Î¥Æ¥ì¥á¥È¥ê¤Ë´Ø¤¹¤ë¾ðÊó¡¡¡¡----------------------¡¡
¡¡
£²¡Ë¾åµ­£²£°£°£²Ç¯£µ·î£±£±Æü¡ÊÅڡˤΥƥì¥á¥È¥ê¤ÎºÇ½ª¹Ô¤òʬÀϤ·¤Æ¤ª¤­¤Þ¤¹.

AS28301C  11May2002
16:34-16:42(JST)
AOS   MEL  LOS  Elev
 43    85  128  83.7
Freq. 435.798-.790MHz

HI HI AE 07 88 55 00 D4 6F 6D 09 42 4A 95 72 4E 91 8D 9A 74 8F 8E 8C 8C 85 
 
¥Æ¥ì¥á¥È¥ê¡¡  Æâ¡¡ÍÆ¡¡ ¡¡      ´¹»»»»ÃÍ¡¡Ã± °Ì
£³£Ã	¼§µ¤¥»¥ó¥µ¡¼£Ú¼´=	36274.5	[nT]
£³£Ä	¼§µ¤¥»¥ó¥µ£Ø¼´	=	73039.2	[nT]
£´£Á	ÂÀÍÛÅÅÃÓȯÀ¸ÅÅή=      ¡¡1117.7	[mA]
£´£Â	£Â½¼ÊüÅÅÅÅή	=	 -471.2	[mA]
£´£Ã	£Âü»ÒÅÅ°µ	=	   15.6	[V]
£´£Ä	£ÂÃæ´Öü»ÒÅÅ°µ	=	    6.8	[V]
£µ£Á	¥Ð¥¹ÅÅ°µ	=	   15.1	[V]
£µ£Â	£Ê£Ô£ÁÁ÷¿®ÅÅÎÏ	=	  655.9	[mW]
£µ£Ã 	¹½Âβ¹ÅÙ£±	=	   26.3	[¡î]
£µ£Ä	¹½Âβ¹ÅÙ£²	=	   26.7	[¡î]
£¶£Á	¹½Âβ¹ÅÙ£³	=	   27.5	[¡î]
£¶£Â	¹½Âβ¹ÅÙ£´	=	   27.5	[¡î]
£¶£Ã	£Â¥»¥ë²¹ÅÙ	=	   30.2	[¡î]

 ==========================¡¡FO-29¡Ê¤Õ¤¸£³¹æ¡Ë¤Î¥Æ¥ì¥á¥È¥êʬÀÏ¡¢£Ñ£Ó£Ï¾ðÊóÅù¡¡=====================
   
¡¡£³)[jamsat-bb:

 =================================================================================================
¡¡
¡¡£´¡Ë£Ê£Á£Ò£Ì ¤Î¥Û¡¼¥à¥Ú¡¼¥¸¤Ë±¿ÍÑͽÄ꤬µ­ºÜ¤µ¤ì¤Æ¤¤¤Þ¤·¤¿¤Î¤Ç¤´¾Ò²ð¤·¤Þ¤¹¡¥
       ¡Ê http://www.jarl.or.jp/Japanese/3_Fuji/new/uy.htm ¡Ë
       
¡¡¡¡¡¡¡¡¡¡¡¡¡¡¡¡¡ö¡ö¡ö¡¡±¿ÍÑͽÄê¤Ë¤Ä¤¤¤Æ¡¡¡ö¡ö¡ö

¡¡¡¡¡¡£´·î£°£±Æü¡Ê·î¡Ë¡¡¡Á¡¡£¶·î£³£°Æü¡ÊÆü¡Ë¥¢¥Ê¥í¥°·Ï±¿ÍÑ 

¡¡¡¡¡ö¤Ê¤ª¡¤±¿ÍÑͽÄê¤ÏÅÔ¹ç¤Ë¤è¤ê¡¤Êѹ¹¤¹¤ë¤³¤È¤¬¤¢¤ê¤Þ¤¹¤Î¤Ç¡¤¤¢¤é¤«¤¸¤á¤´Î»¾µ´ê¤¤¤Þ¤¹¡£

¡¡¾È²ñÀè¡¡¡§¡¡lab@jarl.or.jp

¡¡ºÇ¿·¤Î¾ðÊó¤Ï¥Æ¥ì¥Û¥ó¥µ¡¼¥Ó¥¹¡Ê£°£³¡Ý£³£¹£´£²¡Ý£±£°£°£°¡Ë¤ò¤ªÊ¹¤­¤¯¤À¤µ¤¤¡£¡¡¡¡
¡¡°Ê¸å¤Î±¿ÍѤˤĤ­¤Þ¤·¤Æ¤ÏÊ¿À®£±£´Ç¯£··î¾å½Ü¤Ë¤ªÃΤ餻¤¤¤¿¤·¤Þ¤¹¡£¡¡¡¡¡¡¡¡¡¡¡¡¡¡ 
 ¡¡¡¡¡¡¡¡
-----------------------    £Æ£Ï¡Ý£²£°¡ÊJAS-£±£â¡ËÆ»Í×ÁÇ   -------------------------
 ¡¡
 ¡¡¢£ µ°Æ»Í×ÁÇ£± ¡§½Ðŵ¤Ï£Æ£Ï-£²£¹¡Ö¤Õ¤¸£³¹æ¡×¤ËƱ¤¸¡¥
  
FO-20
1 20480U 90013C   02127.95998419 -.00000055  00000-0 -42540-4 0 04067
2 20480 099.0208 140.0521 0539771 293.4497 061.0774 12.83315434573753
 
 ¡¡¢£ µ°Æ»Í×ÁÇ£² ¡§½Ðŵ¤Ï£Æ£Ï¡Ý£²£¹¡Ö¤Õ¤¸£³¹æ¡×¤ËƱ¤¸¡¥
               
